SS6 Terra Alta 2 (gravel & asphalt) (38.95 km)

Stage-

Pos # Driver Time Diff Prev Diff 1st
1. 1 FRAS. OGIER 24:18.9
2. 7 GBRK. MEEKE 24:19.7 +0.8 +0.8
3. 5 BELT. NEUVILLE 24:21.9 +2.2 +3.0
4. 2 ESTO. TÄNAK 24:22.4 +0.5 +3.5
5. 6 ESPD. SORDO 24:26.5 +4.1 +7.6
6. 4 NORA. MIKKELSEN 24:26.7 +0.2 +7.8
7. 14 NORM. OSTBERG 24:33.1 +6.4 +14.2
8. 11 FINJ. HÄNNINEN 24:34.9 +1.8 +16.0
9. 12 FINE. LAPPI 24:37.4 +2.5 +18.5
10. 8 FRAS. LEFEBVRE 24:43.1 +5.7 +24.2
11. 3 GBRE. EVANS 25:07.3 +24.2 +48.4
12. 82 FRAE. CAMILI 25:25.7 +18.4 +1:06.8
13. 83 NORO. VEIBY 25:32.6 +6.9 +1:13.7
14. 31 CZEJ. KOPECKY 25:41.0 +8.4 +1:22.1
15. 33 ROUS. TEMPESTINI 26:00.1 +19.1 +1:41.2
16. 42 FINJ. NORDGREN 26:01.3 +1.2 +1:42.4
17. 9 AREK. AL QASSIMI 26:02.4 +1.1 +1:43.5
18. 34 MEXB. GUERRA 26:04.9 +2.5 +1:46.0
19. 32 FINT. SUNINEN 26:04.9 +0.0 +1:46.0
20. 37 POLL. PIENIAZEK 26:25.1 +20.2 +2:06.2
21. 88 CHEJ. TÖDTLI 26:30.1 +5.0 +2:11.2
22. 20 UKRV. GORBAN 26:36.7 +6.6 +2:17.8
23. 43 GBRJ. ARMSTRONG 26:50.5 +13.8 +2:31.6
24. 84 FRAP. LOUBET 26:51.4 +0.9 +2:32.5
25. 45 TURO. AVCIOGLU 27:00.4 +9.0 +2:41.5
26. 44 ESPC. GARCIA 27:01.5 +1.1 +2:42.6
27. 46 GBRR. YATES 27:18.1 +16.6 +2:59.2
28. 21 FRAJ. RAOUX 27:38.3 +20.2 +3:19.4
29. 63 FRAN. CIAMIN 27:47.0 +8.7 +3:28.1
30. 89 ECUM. NAVAS 27:52.0 +5.0 +3:33.1
31. 61 FRAR. ASTIER 28:04.1 +12.1 +3:45.2
32. 65 FRAT. FOLB 28:06.2 +2.1 +3:47.3
33. 64 DEUJ. TANNERT 28:13.3 +7.1 +3:54.4
34. 62 ESPN. SOLANS 28:13.8 +0.5 +3:54.9
35. 87 IRLE. BOLAND 28:29.2 +15.4 +4:10.3
36. 92 ESPJ. PELAEZ 28:29.8 +0.6 +4:10.9
37. 93 ESPF. MACIAS 28:43.2 +13.4 +4:24.3
38. 39 FRAY. BONATO 28:59.0 +15.8 +4:40.1
39. 22 GRCJ. SERDERIDIS 29:04.9 +5.9 +4:46.0
40. 100 ESPJ. DOMENECH 29:34.3 +29.4 +5:15.4
41. 95 ANDM. BESOLI 29:49.3 +15.0 +5:30.4
42. 91 ESPJ. FONT 30:18.8 +29.5 +5:59.9
43. 108 ESPJ. SALINAS 30:38.7 +19.9 +6:19.8
44. 94 ESPG. SOSA 30:41.0 +2.3 +6:22.1
45. 102 DEUR. KUHN 31:00.9 +19.9 +6:42.0
46. 105 ESPJ. BASSAS 31:05.4 +4.5 +6:46.5
47. 106 ESPA. VILA 31:07.3 +1.9 +6:48.4
48. 104 ESPR. ROZADA 31:18.9 +11.6 +7:00.0
49. 107 ESPS. FRANCOLI 31:26.9 +8.0 +7:08.0
50. 109 ESPA. SERRATOSA 31:40.7 +13.8 +7:21.8
51. 110 ESPM. PARADELL 32:19.1 +38.4 +8:00.2
52. 35 GBRG. GREENSMITH 32:41.0 +21.9 +8:22.1
53. 38 JPNT. KATSUTA 32:41.0 +0.0 +8:22.1
54. 41 ITAF. ANDOLFI 32:41.0 +0.0 +8:22.1
55. 112 ESPP. SUAREZ 32:47.9 +6.9 +8:29.0
56. 98 FRAJ. GUIBERT 33:17.1 +29.2 +8:58.2
57. 96 SWEM. ANDERSSON 33:56.6 +39.5 +9:37.7
58. 10 FINJ. LATVALA 34:18.9 +22.3 +10:00.0
59. 90 ESPJ. SOLANS 34:20.1 +1.2 +10:01.2
60. 114 ESPE. SANS 35:43.1 +1:23.0 +11:24.2
61. 97 ITAG. TAVELLI 36:07.8 +24.7 +11:48.9
62. 115 ITAC. GIAMPAOLI 37:38.7 +1:30.9 +13:19.8
63. 66 SWED. RADSTRÖM 37:47.0 +8.3 +13:28.1
64. 103 PRTJ. RAMOS 38:18.9 +31.9 +14:00.0
65. 113 ESPÓ. FREIRE 38:18.9 +0.0 +14:00.0
66. 101 ESPZ. ESTEBAN 39:46.9 +1:28.0 +15:28.0
67. 99 FRAP. GOMEZ 40:10.7 +23.8 +15:51.8

Overall-

Pos # Driver Time Diff Prev Diff 1st
1. 4 NORA. MIKKELSEN 1:11:56.3
2. 1 FRAS. OGIER 1:11:57.7 +1.4 +1.4
3. 7 GBRK. MEEKE 1:11:59.3 +1.6 +3.0
4. 2 ESTO. TÄNAK 1:12:02.6 +3.3 +6.3
5. 14 NORM. OSTBERG 1:12:03.4 +0.8 +7.1
6. 6 ESPD. SORDO 1:12:07.1 +3.7 +10.8
7. 5 BELT. NEUVILLE 1:12:09.1 +2.0 +12.8
8. 11 FINJ. HÄNNINEN 1:12:29.9 +20.8 +33.6
9. 8 FRAS. LEFEBVRE 1:12:58.5 +28.6 +1:02.2
10. 12 FINE. LAPPI 1:13:01.8 +3.3 +1:05.5
11. 3 GBRE. EVANS 1:13:18.7 +16.9 +1:22.4
12. 82 FRAE. CAMILI 1:14:24.4 +1:05.7 +2:28.1
13. 83 NORO. VEIBY 1:15:06.2 +41.8 +3:09.9
14. 32 FINT. SUNINEN 1:15:16.6 +10.4 +3:20.3
15. 33 ROUS. TEMPESTINI 1:16:33.8 +1:17.2 +4:37.5
16. 31 CZEJ. KOPECKY 1:16:35.4 +1.6 +4:39.1
17. 84 FRAP. LOUBET 1:16:56.9 +21.5 +5:00.6
18. 34 MEXB. GUERRA 1:17:01.0 +4.1 +5:04.7
19. 9 AREK. AL QASSIMI 1:17:01.7 +0.7 +5:05.4
20. 42 FINJ. NORDGREN 1:17:48.5 +46.8 +5:52.2
21. 88 CHEJ. TÖDTLI 1:18:00.0 +11.5 +6:03.7
22. 37 POLL. PIENIAZEK 1:18:03.2 +3.2 +6:06.9
23. 20 UKRV. GORBAN 1:18:45.2 +42.0 +6:48.9
24. 45 TURO. AVCIOGLU 1:19:07.2 +22.0 +7:10.9
25. 46 GBRR. YATES 1:20:02.5 +55.3 +8:06.2
26. 44 ESPC. GARCIA 1:20:22.9 +20.4 +8:26.6
27. 63 FRAN. CIAMIN 1:21:36.7 +1:13.8 +9:40.4
28. 62 ESPN. SOLANS 1:21:58.8 +22.1 +10:02.5
29. 89 ECUM. NAVAS 1:22:02.7 +3.9 +10:06.4
30. 10 FINJ. LATVALA 1:22:05.1 +2.4 +10:08.8
31. 65 FRAT. FOLB 1:22:10.8 +5.7 +10:14.5
32. 21 FRAJ. RAOUX 1:22:28.4 +17.6 +10:32.1
33. 64 DEUJ. TANNERT 1:23:11.0 +42.6 +11:14.7
34. 61 FRAR. ASTIER 1:23:28.4 +17.4 +11:32.1
35. 43 GBRJ. ARMSTRONG 1:23:48.3 +19.9 +11:52.0
36. 87 IRLE. BOLAND 1:23:54.7 +6.4 +11:58.4
37. 93 ESPF. MACIAS 1:24:59.4 +1:04.7 +13:03.1
38. 92 ESPJ. PELAEZ 1:25:25.7 +26.3 +13:29.4
39. 22 GRCJ. SERDERIDIS 1:27:05.4 +1:39.7 +15:09.1
40. 95 ANDM. BESOLI 1:27:15.4 +10.0 +15:19.1
41. 39 FRAY. BONATO 1:27:50.1 +34.7 +15:53.8
42. 91 ESPJ. FONT 1:28:26.0 +35.9 +16:29.7
43. 94 ESPG. SOSA 1:29:35.0 +1:09.0 +17:38.7
44. 100 ESPJ. DOMENECH 1:29:49.8 +14.8 +17:53.5
45. 90 ESPJ. SOLANS 1:30:30.8 +41.0 +18:34.5
46. 104 ESPR. ROZADA 1:30:44.3 +13.5 +18:48.0
47. 105 ESPJ. BASSAS 1:31:46.3 +1:02.0 +19:50.0
48. 107 ESPS. FRANCOLI 1:31:58.0 +11.7 +20:01.7
49. 96 SWEM. ANDERSSON 1:32:07.6 +9.6 +20:11.3
50. 106 ESPA. VILA 1:32:23.9 +16.3 +20:27.6
51. 102 DEUR. KUHN 1:33:21.1 +57.2 +21:24.8
52. 110 ESPM. PARADELL 1:35:39.8 +2:18.7 +23:43.5
53. 66 SWED. RADSTRÖM 1:36:34.6 +54.8 +24:38.3
54. 109 ESPA. SERRATOSA 1:37:06.9 +32.3 +25:10.6
55. 112 ESPP. SUAREZ 1:37:10.0 +3.1 +25:13.7
56. 98 FRAJ. GUIBERT 1:37:33.9 +23.9 +25:37.6
57. 97 ITAG. TAVELLI 1:38:58.9 +1:25.0 +27:02.6
58. 101 ESPZ. ESTEBAN 1:43:12.1 +4:13.2 +31:15.8
59. 114 ESPE. SANS 1:45:19.2 +2:07.1 +33:22.9
60. 99 FRAP. GOMEZ 1:45:26.7 +7.5 +33:30.4
61. 108 ESPJ. SALINAS 1:48:22.3 +2:55.6 +36:26.0
62. 35 GBRG. GREENSMITH 1:56:52.7 +8:30.4 +44:56.4
63. 41 ITAF. ANDOLFI 1:56:52.7 +0.0 +44:56.4
64. 113 ESPÓ. FREIRE 1:57:04.4 +11.7 +45:08.1
65. 103 PRTJ. RAMOS 1:59:30.7 +2:26.3 +47:34.4
66. 115 ITAC. GIAMPAOLI 1:59:44.6 +13.9 +47:48.3
67. 38 JPNT. KATSUTA 2:15:57.1 +16:12.5 +1:04:00.8